sat.trackr.live / text

‹ back to catalog

QIANFAN-126

NORAD 68653 · 2026-075T

PAYLOAD ACTIVE UNKNOWN

§ Identity

Operator
Country
PRC
Launch date
2026-04-07
Launch site
WSC
Launch vehicle
Mass (kg)
RCS (m²)

External: N2YO · Heavens-Above · Gunter

§ Orbital elements

Epoch: 2026-05-24T16:52:06.693600Z

Period
105.13 min
Inclination
88.9755°
Eccentricity
0.0011952
Mean motion
13.69712337 rev/d
Perigee alt
991.8 km
Apogee alt
1,009.4 km
Semi-major
7,378.7 km
B*
4.1986e-5
RAAN
323.3585°
Arg perigee
119.5621°
Mean anomaly
240.6734°
Rev number
664

§ Raw data

QIANFAN-1261 68653U 26075T   26144.70285525  .00000049  00000+0  41986-4 0  99932 68653  88.9755 323.3585 0011952 119.5621 240.6734 13.69712337  6648

JSON: /api/v1/satellites/68653 · /tle

For live sub-satellite position, see the globe view (requires WebGL).

§ Visibility from observer

Set your observer location to see the next 7 days of passes ≥ 10°. The values pass through the URL so the page stays shareable.

No JS? Fill the form by hand. The geolocation button needs JavaScript.